Time,TemperatureF,DewpointF,PressureIn,WindDirection,WindDirectionDegrees,WindSpeedMPH,WindSpeedGustMPH,Humidity,HourlyPrecipIn,Conditions,Clouds,dailyrainin,SoftwareType,DateUTC
2013-03-14 00:12:00,25.0,-99.9,-100.00,WSW,253,2.0,-999.0,-999,-99.99,,,-99.99,,2013-03-14 04:12:00,
2013-03-14 00:22:00,25.0,-99.9,-100.00,West,268,2.0,-999.0,-999,-99.99,,,-99.99,,2013-03-14 04:22:00,
2013-03-14 00:33:00,24.0,-99.9,-100.00,West,267,2.0,-999.0,-999,-99.99,,,-99.99,,2013-03-14 04:33:00,
2013-03-14 00:42:00,24.0,-99.9,-100.00,West,267,2.0,-999.0,-999,-99.99,,,-99.99,,2013-03-14 04:42:00,
2013-03-14 00:53:00,24.0,-99.9,-100.00,West,267,0.0,-999.0,-999,-99.99,,,-99.99,,2013-03-14 04:53:00,
2013-03-14 01:02:00,24.0,-99.9,-100.00,West,267,0.0,-999.0,-999,-99.99,,,-99.99,,2013-03-14 05:02:00,
2013-03-14 01:13:00,24.0,-99.9,-100.00,West,267,0.0,-999.0,-999,-99.99,,,-99.99,,2013-03-14 05:13:00,
2013-03-14 01:22:00,24.0,-99.9,-100.00,West,267,0.0,-999.0,-999,-99.99,,,-99.99,,2013-03-14 05:22:00,
2013-03-14 01:33:00,24.0,-99.9,-100.00,West,267,0.0,-999.0,-999,-99.99,,,-99.99,,2013-03-14 05:33:00,
2013-03-14 01:43:00,24.0,-99.9,-100.00,West,267,0.0,-999.0,-999,-99.99,,,-99.99,,2013-03-14 05:43:00,
2013-03-14 01:53:00,24.0,-99.9,-100.00,West,267,0.0,-999.0,-999,-99.99,,,-99.99,,2013-03-14 05:53:00,
2013-03-14 02:02:00,24.0,-99.9,-100.00,West,267,1.0,-999.0,-999,-99.99,,,-99.99,,2013-03-14 06:02:00,
2013-03-14 02:13:00,24.0,-99.9,-100.00,West,267,1.0,-999.0,-999,-99.99,,,-99.99,,2013-03-14 06:13:00,
2013-03-14 02:22:00,23.0,-99.9,-100.00,West,267,1.0,-999.0,-999,-99.99,,,-99.99,,2013-03-14 06:22:00,
2013-03-14 02:33:00,23.0,-99.9,-100.00,West,267,0.0,-999.0,-999,-99.99,,,-99.99,,2013-03-14 06:33:00,
2013-03-14 02:42:00,23.0,-99.9,-100.00,West,267,0.0,-999.0,-999,-99.99,,,-99.99,,2013-03-14 06:42:00,
2013-03-14 02:52:00,23.0,-99.9,-100.00,West,267,0.0,-999.0,-999,-99.99,,,-99.99,,2013-03-14 06:52:00,
2013-03-14 03:02:00,23.0,-99.9,-100.00,West,267,1.0,-999.0,-999,-99.99,,,-99.99,,2013-03-14 07:02:00,
2013-03-14 03:12:00,23.0,-99.9,-100.00,West,267,1.0,-999.0,-999,-99.99,,,-99.99,,2013-03-14 07:12:00,
2013-03-14 03:22:00,23.0,-99.9,-100.00,West,267,2.0,-999.0,-999,-99.99,,,-99.99,,2013-03-14 07:22:00,
2013-03-14 03:32:00,23.0,-99.9,-100.00,West,267,2.0,-999.0,-999,-99.99,,,-99.99,,2013-03-14 07:32:00,
2013-03-14 03:43:00,23.0,-99.9,-100.00,West,267,2.0,-999.0,-999,-99.99,,,-99.99,,2013-03-14 07:43:00,
2013-03-14 03:52:00,23.0,-99.9,-100.00,West,267,2.0,-999.0,-999,-99.99,,,-99.99,,2013-03-14 07:52:00,
2013-03-14 04:02:00,23.0,-99.9,-100.00,West,267,1.0,-999.0,-999,-99.99,,,-99.99,,2013-03-14 08:02:00,
2013-03-14 04:12:00,23.0,-99.9,-100.00,West,267,1.0,-999.0,-999,-99.99,,,-99.99,,2013-03-14 08:12:00,
2013-03-14 04:22:00,23.0,-99.9,-100.00,West,267,2.0,-999.0,-999,-99.99,,,-99.99,,2013-03-14 08:22:00,
2013-03-14 04:32:00,23.0,-99.9,-100.00,West,267,1.0,-999.0,-999,-99.99,,,-99.99,,2013-03-14 08:32:00,
2013-03-14 04:42:00,23.0,-99.9,-100.00,West,267,1.0,-999.0,-999,-99.99,,,-99.99,,2013-03-14 08:42:00,
2013-03-14 04:52:00,23.0,-99.9,-100.00,West,267,1.0,-999.0,-999,-99.99,,,-99.99,,2013-03-14 08:52:00,
2013-03-14 05:02:00,23.0,-99.9,-100.00,West,267,1.0,-999.0,-999,-99.99,,,-99.99,,2013-03-14 09:02:00,
2013-03-14 05:12:00,23.0,-99.9,-100.00,West,267,1.0,-999.0,-999,-99.99,,,-99.99,,2013-03-14 09:12:00,
2013-03-14 05:22:00,22.0,-99.9,-100.00,West,267,0.0,-999.0,-999,-99.99,,,-99.99,,2013-03-14 09:22:00,
2013-03-14 05:32:00,22.0,-99.9,-100.00,West,267,1.0,-999.0,-999,-99.99,,,-99.99,,2013-03-14 09:32:00,
2013-03-14 05:42:00,22.0,-99.9,-100.00,West,267,1.0,-999.0,-999,-99.99,,,-99.99,,2013-03-14 09:42:00,
2013-03-14 05:52:00,22.0,-99.9,-100.00,West,267,0.0,-999.0,-999,-99.99,,,-99.99,,2013-03-14 09:52:00,
2013-03-14 06:02:00,22.0,-99.9,-100.00,West,267,2.0,-999.0,-999,-99.99,,,-99.99,,2013-03-14 10:02:00,
2013-03-14 06:12:00,22.0,-99.9,-100.00,West,267,2.0,-999.0,-999,-99.99,,,-99.99,,2013-03-14 10:12:00,
2013-03-14 06:22:00,22.0,-99.9,-100.00,West,267,3.0,-999.0,-999,-99.99,,,-99.99,,2013-03-14 10:22:00,
2013-03-14 06:32:00,22.0,-99.9,-100.00,West,267,3.0,-999.0,-999,-99.99,,,-99.99,,2013-03-14 10:32:00,
2013-03-14 06:42:00,22.0,-99.9,-100.00,West,267,3.0,-999.0,-999,-99.99,,,-99.99,,2013-03-14 10:42:00,
2013-03-14 06:52:00,22.0,-99.9,-100.00,West,267,2.0,-999.0,-999,-99.99,,,-99.99,,2013-03-14 10:52:00,
2013-03-14 07:02:00,22.0,-99.9,-100.00,SW,228,1.0,-999.0,-999,-99.99,,,-99.99,,2013-03-14 11:02:00,
2013-03-14 07:12:00,22.0,-99.9,-100.00,SW,227,1.0,-999.0,-999,-99.99,,,-99.99,,2013-03-14 11:12:00,
2013-03-14 07:22:00,22.0,-99.9,-100.00,SW,227,1.0,-999.0,-999,-99.99,,,-99.99,,2013-03-14 11:22:00,
2013-03-14 07:33:00,22.0,-99.9,-100.00,SW,227,0.0,-999.0,-999,-99.99,,,-99.99,,2013-03-14 11:33:00,
2013-03-14 07:42:00,22.0,-99.9,-100.00,SW,227,0.0,-999.0,-999,-99.99,,,-99.99,,2013-03-14 11:42:00,
2013-03-14 07:53:00,22.0,-99.9,-100.00,SW,227,1.0,-999.0,-999,-99.99,,,-99.99,,2013-03-14 11:53:00,
2013-03-14 08:02:00,22.0,-99.9,-100.00,SW,227,2.0,-999.0,-999,-99.99,,,-99.99,,2013-03-14 12:02:00,
2013-03-14 08:12:00,22.0,-99.9,-100.00,SW,227,2.0,-999.0,-999,-99.99,,,-99.99,,2013-03-14 12:12:00,
2013-03-14 08:22:00,22.0,-99.9,-100.00,SW,228,2.0,-999.0,-999,-99.99,,,-99.99,,2013-03-14 12:22:00,
2013-03-14 08:33:00,23.0,-99.9,-100.00,SW,228,2.0,-999.0,-999,-99.99,,,-99.99,,2013-03-14 12:33:00,
2013-03-14 08:43:00,23.0,-99.9,-100.00,SW,228,2.0,-999.0,-999,-99.99,,,-99.99,,2013-03-14 12:43:00,
2013-03-14 08:52:00,23.0,-99.9,-100.00,SW,228,0.0,-999.0,-999,-99.99,,,-99.99,,2013-03-14 12:52:00,
2013-03-14 09:03:00,24.0,-99.9,-100.00,SW,227,1.0,-999.0,-999,-99.99,,,-99.99,,2013-03-14 13:03:00,
2013-03-14 09:13:00,24.0,-99.9,-100.00,SW,227,1.0,-999.0,-999,-99.99,,,-99.99,,2013-03-14 13:13:00,
2013-03-14 09:22:00,25.0,-99.9,-100.00,SW,228,4.0,-999.0,-999,-99.99,,,-99.99,,2013-03-14 13:22:00,
2013-03-14 09:33:00,25.0,-99.9,-100.00,West,271,3.0,-999.0,-999,-99.99,,,-99.99,,2013-03-14 13:33:00,
2013-03-14 09:43:00,25.0,-99.9,-100.00,West,271,3.0,-999.0,-999,-99.99,,,-99.99,,2013-03-14 13:43:00,
2013-03-14 09:53:00,26.0,-99.9,-100.00,WNW,297,3.0,-999.0,-999,-99.99,,,-99.99,,2013-03-14 13:53:00,
2013-03-14 10:02:00,27.0,-99.9,-100.00,WSW,243,3.0,-999.0,-999,-99.99,,,-99.99,,2013-03-14 14:02:00,
2013-03-14 10:12:00,27.0,-99.9,-100.00,WSW,243,3.0,-999.0,-999,-99.99,,,-99.99,,2013-03-14 14:12:00,
2013-03-14 10:22:00,28.0,-99.9,-100.00,SW,229,3.0,-999.0,-999,-99.99,,,-99.99,,2013-03-14 14:22:00,
2013-03-14 10:32:00,29.0,-99.9,-100.00,SW,223,4.0,-999.0,-999,-99.99,,,-99.99,,2013-03-14 14:32:00,
2013-03-14 10:43:00,29.0,-99.9,-100.00,SW,223,4.0,-999.0,-999,-99.99,,,-99.99,,2013-03-14 14:43:00,
2013-03-14 10:53:00,30.0,-99.9,-100.00,WNW,295,3.0,-999.0,-999,-99.99,,,-99.99,,2013-03-14 14:53:00,
2013-03-14 11:02:00,31.0,-99.9,-100.00,SW,236,4.0,-999.0,-999,-99.99,,,-99.99,,2013-03-14 15:02:00,
2013-03-14 11:12:00,31.0,-99.9,-100.00,SW,236,4.0,-999.0,-999,-99.99,,,-99.99,,2013-03-14 15:12:00,
2013-03-14 11:22:00,31.0,-99.9,-100.00,WSW,255,2.0,-999.0,-999,-99.99,,,-99.99,,2013-03-14 15:22:00,
2013-03-14 11:33:00,33.0,-99.9,-100.00,SW,230,3.0,-999.0,-999,-99.99,,,-99.99,,2013-03-14 15:33:00,
2013-03-14 11:43:00,33.0,-99.9,-100.00,SW,230,3.0,-999.0,-999,-99.99,,,-99.99,,2013-03-14 15:43:00,
2013-03-14 11:52:00,33.0,-99.9,-100.00,WSW,238,2.0,-999.0,-999,-99.99,,,-99.99,,2013-03-14 15:52:00,
2013-03-14 12:03:00,35.0,-99.9,-100.00,WSW,258,3.0,-999.0,-999,-99.99,,,-99.99,,2013-03-14 16:03:00,
2013-03-14 12:13:00,35.0,-99.9,-100.00,WSW,258,3.0,-999.0,-999,-99.99,,,-99.99,,2013-03-14 16:13:00,
2013-03-14 12:23:00,35.0,-99.9,-100.00,SW,224,4.0,-999.0,-999,-99.99,,,-99.99,,2013-03-14 16:23:00,
2013-03-14 12:33:00,36.0,-99.9,-100.00,WNW,298,2.0,-999.0,-999,-99.99,,,-99.99,,2013-03-14 16:33:00,
2013-03-14 12:42:00,36.0,-99.9,-100.00,WNW,298,2.0,-999.0,-999,-99.99,,,-99.99,,2013-03-14 16:42:00,
2013-03-14 12:52:00,38.0,-99.9,-100.00,SSE,162,6.0,-999.0,-999,-99.99,,,-99.99,,2013-03-14 16:52:00,
2013-03-14 13:03:00,38.0,-99.9,-100.00,SSW,192,9.0,-999.0,-999,-99.99,,,-99.99,,2013-03-14 17:03:00,
2013-03-14 13:13:00,38.0,-99.9,-100.00,SSW,192,9.0,-999.0,-999,-99.99,,,-99.99,,2013-03-14 17:13:00,
2013-03-14 13:24:00,38.0,-99.9,-100.00,WNW,294,3.0,-999.0,-999,-99.99,,,-99.99,,2013-03-14 17:24:00,
2013-03-14 13:33:00,38.0,-99.9,-100.00,WSW,251,5.0,-999.0,-999,-99.99,,,-99.99,,2013-03-14 17:33:00,
2013-03-14 13:42:00,38.0,-99.9,-100.00,WSW,251,5.0,-999.0,-999,-99.99,,,-99.99,,2013-03-14 17:42:00,
2013-03-14 13:53:00,41.0,-99.9,-100.00,SSW,213,4.0,-999.0,-999,-99.99,,,-99.99,,2013-03-14 17:53:00,
2013-03-14 14:03:00,41.0,-99.9,-100.00,SW,219,5.0,-999.0,-999,-99.99,,,-99.99,,2013-03-14 18:03:00,
2013-03-14 14:13:00,41.0,-99.9,-100.00,SW,219,5.0,-999.0,-999,-99.99,,,-99.99,,2013-03-14 18:13:00,
2013-03-14 14:23:00,41.0,-99.9,-100.00,SW,223,2.0,-999.0,-999,-99.99,,,-99.99,,2013-03-14 18:23:00,
2013-03-14 14:33:00,41.0,-99.9,-100.00,WSW,250,2.0,-999.0,-999,-99.99,,,-99.99,,2013-03-14 18:33:00,
2013-03-14 14:43:00,41.0,-99.9,-100.00,WSW,250,2.0,-999.0,-999,-99.99,,,-99.99,,2013-03-14 18:43:00,
2013-03-14 14:53:00,42.0,-99.9,-100.00,SSW,198,0.0,-999.0,-999,-99.99,,,-99.99,,2013-03-14 18:53:00,
2013-03-14 15:03:00,43.0,-99.9,-100.00,SW,221,5.0,-999.0,-999,-99.99,,,-99.99,,2013-03-14 19:03:00,
2013-03-14 15:12:00,43.0,-99.9,-100.00,SW,221,5.0,-999.0,-999,-99.99,,,-99.99,,2013-03-14 19:12:00,
2013-03-14 15:23:00,43.0,-99.9,-100.00,South,181,3.0,-999.0,-999,-99.99,,,-99.99,,2013-03-14 19:23:00,
2013-03-14 15:32:00,40.0,-99.9,-100.00,SW,228,7.0,-999.0,-999,-99.99,,,-99.99,,2013-03-14 19:32:00,
2013-03-14 15:43:00,40.0,-99.9,-100.00,SW,228,7.0,-999.0,-999,-99.99,,,-99.99,,2013-03-14 19:43:00,
2013-03-14 16:02:00,43.0,-99.9,-100.00,SW,234,5.0,-999.0,-999,-99.99,,,-99.99,,2013-03-14 20:02:00,
2013-03-14 16:12:00,43.0,-99.9,-100.00,SW,234,5.0,-999.0,-999,-99.99,,,-99.99,,2013-03-14 20:12:00,
2013-03-14 16:22:00,42.0,-99.9,-100.00,SSW,204,1.0,-999.0,-999,-99.99,,,-99.99,,2013-03-14 20:22:00,
2013-03-14 16:32:00,43.0,-99.9,-100.00,SW,228,4.0,-999.0,-999,-99.99,,,-99.99,,2013-03-14 20:32:00,
2013-03-14 16:43:00,43.0,-99.9,-100.00,SW,228,4.0,-999.0,-999,-99.99,,,-99.99,,2013-03-14 20:43:00,
2013-03-14 16:53:00,41.0,-99.9,-100.00,WSW,255,5.0,-999.0,-999,-99.99,,,-99.99,,2013-03-14 20:53:00,
2013-03-14 17:03:00,42.0,-99.9,-100.00,West,273,5.0,-999.0,-999,-99.99,,,-99.99,,2013-03-14 21:03:00,
2013-03-14 17:13:00,42.0,-99.9,-100.00,West,273,5.0,-999.0,-999,-99.99,,,-99.99,,2013-03-14 21:13:00,
2013-03-14 17:23:00,43.0,-99.9,-100.00,SW,234,3.0,-999.0,-999,-99.99,,,-99.99,,2013-03-14 21:23:00,
2013-03-14 17:33:00,42.0,-99.9,-100.00,SSW,209,2.0,-999.0,-999,-99.99,,,-99.99,,2013-03-14 21:33:00,
2013-03-14 17:44:00,42.0,-99.9,-100.00,SSW,209,2.0,-999.0,-999,-99.99,,,-99.99,,2013-03-14 21:44:00,
2013-03-14 17:53:00,41.0,-99.9,-100.00,WSW,243,4.0,-999.0,-999,-99.99,,,-99.99,,2013-03-14 21:53:00,
2013-03-14 18:04:00,40.0,-99.9,-100.00,WSW,254,3.0,-999.0,-999,-99.99,,,-99.99,,2013-03-14 22:04:00,
2013-03-14 18:13:00,40.0,-99.9,-100.00,WSW,254,3.0,-999.0,-999,-99.99,,,-99.99,,2013-03-14 22:13:00,
2013-03-14 18:23:00,40.0,-99.9,-100.00,SW,225,3.0,-999.0,-999,-99.99,,,-99.99,,2013-03-14 22:23:00,
2013-03-14 18:33:00,40.0,-99.9,-100.00,West,263,4.0,-999.0,-999,-99.99,,,-99.99,,2013-03-14 22:33:00,
2013-03-14 18:42:00,40.0,-99.9,-100.00,West,263,4.0,-999.0,-999,-99.99,,,-99.99,,2013-03-14 22:42:00,
2013-03-14 18:53:00,41.0,-99.9,-100.00,SW,222,7.0,-999.0,-999,-99.99,,,-99.99,,2013-03-14 22:53:00,
2013-03-14 19:03:00,40.0,-99.9,-100.00,SW,229,1.0,-999.0,-999,-99.99,,,-99.99,,2013-03-14 23:03:00,
2013-03-14 19:12:00,40.0,-99.9,-100.00,SW,229,1.0,-999.0,-999,-99.99,,,-99.99,,2013-03-14 23:12:00,
2013-03-14 19:23:00,39.0,-99.9,-100.00,SW,226,2.0,-999.0,-999,-99.99,,,-99.99,,2013-03-14 23:23:00,
2013-03-14 19:33:00,39.0,-99.9,-100.00,SW,228,2.0,-999.0,-999,-99.99,,,-99.99,,2013-03-14 23:33:00,
2013-03-14 19:43:00,39.0,-99.9,-100.00,SW,228,2.0,-999.0,-999,-99.99,,,-99.99,,2013-03-14 23:43:00,
2013-03-14 19:54:00,38.0,-99.9,-100.00,SW,227,2.0,-999.0,-999,-99.99,,,-99.99,,2013-03-14 23:54:00,
2013-03-14 20:02:00,37.0,-99.9,-100.00,SW,227,1.0,-999.0,-999,-99.99,,,-99.99,,2013-03-15 00:02:00,
2013-03-14 20:12:00,37.0,-99.9,-100.00,SW,227,1.0,-999.0,-999,-99.99,,,-99.99,,2013-03-15 00:12:00,
2013-03-14 20:23:00,37.0,-99.9,-100.00,SW,227,1.0,-999.0,-999,-99.99,,,-99.99,,2013-03-15 00:23:00,
2013-03-14 20:33:00,37.0,-99.9,-100.00,SW,227,3.0,-999.0,-999,-99.99,,,-99.99,,2013-03-15 00:33:00,
2013-03-14 20:43:00,37.0,-99.9,-100.00,SW,227,3.0,-999.0,-999,-99.99,,,-99.99,,2013-03-15 00:43:00,
2013-03-14 20:53:00,37.0,-99.9,-100.00,SW,228,3.0,-999.0,-999,-99.99,,,-99.99,,2013-03-15 00:53:00,
2013-03-14 21:03:00,37.0,-99.9,-100.00,SW,228,0.0,-999.0,-999,-99.99,,,-99.99,,2013-03-15 01:03:00,
2013-03-14 21:12:00,37.0,-99.9,-100.00,SW,228,0.0,-999.0,-999,-99.99,,,-99.99,,2013-03-15 01:12:00,
2013-03-14 21:23:00,36.0,-99.9,-100.00,SW,226,0.0,-999.0,-999,-99.99,,,-99.99,,2013-03-15 01:23:00,
2013-03-14 21:33:00,36.0,-99.9,-100.00,SW,226,0.0,-999.0,-999,-99.99,,,-99.99,,2013-03-15 01:33:00,
2013-03-14 21:43:00,36.0,-99.9,-100.00,SW,226,0.0,-999.0,-999,-99.99,,,-99.99,,2013-03-15 01:43:00,
2013-03-14 21:52:00,36.0,-99.9,-100.00,SW,226,0.0,-999.0,-999,-99.99,,,-99.99,,2013-03-15 01:52:00,
2013-03-14 22:03:00,36.0,-99.9,-100.00,SW,223,1.0,-999.0,-999,-99.99,,,-99.99,,2013-03-15 02:03:00,
2013-03-14 22:12:00,36.0,-99.9,-100.00,SW,223,1.0,-999.0,-999,-99.99,,,-99.99,,2013-03-15 02:12:00,
2013-03-14 22:22:00,36.0,-99.9,-100.00,SW,223,0.0,-999.0,-999,-99.99,,,-99.99,,2013-03-15 02:22:00,
2013-03-14 22:33:00,35.0,-99.9,-100.00,SW,223,0.0,-999.0,-999,-99.99,,,-99.99,,2013-03-15 02:33:00,
2013-03-14 22:42:00,35.0,-99.9,-100.00,SW,223,0.0,-999.0,-999,-99.99,,,-99.99,,2013-03-15 02:42:00,
2013-03-14 22:52:00,35.0,-99.9,-100.00,SW,223,1.0,-999.0,-999,-99.99,,,-99.99,,2013-03-15 02:52:00,
2013-03-14 23:02:00,35.0,-99.9,-100.00,SW,223,3.0,-999.0,-999,-99.99,,,-99.99,,2013-03-15 03:02:00,
2013-03-14 23:13:00,35.0,-99.9,-100.00,SW,223,3.0,-999.0,-999,-99.99,,,-99.99,,2013-03-15 03:13:00,
2013-03-14 23:22:00,34.0,-99.9,-100.00,SW,224,2.0,-999.0,-999,-99.99,,,-99.99,,2013-03-15 03:22:00,
2013-03-14 23:33:00,34.0,-99.9,-100.00,SW,224,4.0,-999.0,-999,-99.99,,,-99.99,,2013-03-15 03:33:00,
2013-03-14 23:43:00,34.0,-99.9,-100.00,SW,224,4.0,-999.0,-999,-99.99,,,-99.99,,2013-03-15 03:43:00,
2013-03-14 23:53:00,34.0,-99.9,-100.00,SW,227,4.0,-999.0,-999,-99.99,,,-99.99,,2013-03-15 03:53:00,